EST,Max TemperatureF,Mean TemperatureF,Min TemperatureF,Max Dew PointF,MeanDew PointF,Min DewpointF,Max Humidity, Mean Humidity, Min Humidity, Max Sea Level PressureIn, Mean Sea Level PressureIn, Min Sea Level PressureIn, Max VisibilityMiles, Mean VisibilityMiles, Min VisibilityMiles, Max Wind SpeedMPH, Mean Wind SpeedMPH, Max Gust SpeedMPH,PrecipitationIn, CloudCover, Events, WindDirDegrees
2013-2-1,24,20,15,12,8,2,79,61,38,30.14,29.94,29.64,10,5,0,18,11,28,0.03,7,Snow,281
2013-2-2,26,14,3,13,5,-3,77,59,34,30.24,30.10,30.01,10,7,1,17,7,21,0.00,6,Snow,242
2013-2-3,27,18,8,12,8,3,84,70,43,30.04,29.90,29.78,10,9,2,6,0,,0.00,6,Snow,250
2013-2-4,23,19,15,13,7,2,79,59,42,29.96,29.83,29.73,10,9,2,18,8,28,0.00,7,Snow,272
2013-2-5,28,22,16,15,7,3,65,54,39,30.02,29.95,29.90,10,10,10,7,1,,0.00,5,,173
2013-2-6,30,24,18,19,13,-2,81,60,34,30.34,30.04,29.87,10,8,2,16,7,25,0.00,6,Snow,267
2013-2-7,27,18,10,4,1,-4,73,44,32,30.54,30.45,30.35,10,10,10,8,4,21,0.00,5,,298
2013-2-8,28,24,21,19,15,4,81,71,39,30.37,29.87,29.76,10,2,0,26,17,41,0.12,8,Snow,101
2013-2-9,19,14,10,16,3,-10,86,60,34,30.35,30.02,29.80,10,6,0,21,10,30,0.33,4,Fog-Snow,270
2013-2-10,30,12,-7,3,-4,-14,72,52,24,30.51,30.41,30.31,10,10,10,8,3,,0.00,0,,263
2013-2-11,41,30,19,36,24,2,89,70,27,30.27,29.91,29.64,10,8,1,16,9,24,0.07,7,Snow,87
2013-2-12,36,34,32,25,22,18,65,59,52,29.90,29.78,29.67,10,10,10,23,13,34,0.00,8,,274
2013-2-13,37,31,25,21,18,15,72,60,41,29.88,29.82,29.73,10,10,9,18,9,25,0.00,6,,270
2013-2-14,39,26,14,19,16,8,81,62,39,29.98,29.90,29.74,10,10,6,7,2,,0.00,3,,230
2013-2-15,46,36,26,25,22,18,78,56,37,30.00,29.94,29.90,10,9,2,10,4,,0.00,5,Snow,220
2013-2-16,32,28,23,27,18,3,86,67,40,30.01,29.94,29.81,10,7,1,10,5,18,0.01,6,Snow,279
2013-2-17,23,16,10,1,-2,-5,54,44,29,29.86,29.71,29.61,10,10,10,23,11,33,0.00,4,,286
2013-2-18,25,16,7,3,-4,-7,65,44,27,30.19,30.11,29.91,10,10,10,20,14,30,0.00,0,,274
2013-2-19,42,28,15,31,20,2,89,66,35,30.19,29.82,29.58,10,7,1,15,5,25,0.14,6,Rain-Snow,90
2013-2-20,33,28,23,28,15,7,86,61,41,29.86,29.71,29.62,10,8,1,24,13,34,0.00,8,Snow,270
2013-2-21,23,20,18,10,7,3,63,56,49,30.38,29.99,29.82,10,8,1,20,13,30,0.00,8,Snow,276
2013-2-22,37,26,15,17,13,9,79,57,39,30.43,30.34,30.27,10,10,10,17,5,24,0.00,4,,127
2013-2-23,35,34,32,27,24,19,78,70,56,30.26,30.08,29.89,10,9,2,16,11,25,0.02,8,Rain,91
2013-2-24,37,34,30,31,28,23,93,82,72,29.96,29.81,29.74,10,5,1,13,5,16,0.12,8,Snow,266
2013-2-25,37,32,26,25,22,21,81,68,52,30.26,30.12,29.95,10,10,9,7,4,,0.00,6,,276
2013-2-26,37,28,19,23,20,15,85,65,51,30.33,30.25,30.09,10,10,8,21,4,30,0.00,4,,98
2013-2-27,39,36,32,32,28,23,87,76,64,30.04,29.80,29.60,10,5,0,22,15,38,0.37,8,Fog-Rain-Snow,103
2013-2-28,42,38,33,34,30,28,89,80,61,29.62,29.58,29.53,10,7,2,7,3,,0.03,8,Rain-Snow,181